Location: The Saddle
(36.8333°N, 80.3417°W)
Time: 16:34:33
(UTC-05:00)

Explorer 7 - All Passes

Search period start: 30 January 2023 00:00
Search period end: 09 February 2023 00:00
Orbit: 480 x 660 km, 50.3° (Epoch: 30 January)

Date Brightness Start Highest point End Pass type
(mag) Time Alt. Az. Time Alt. Az. Time Alt. Az.
30 Jan - 12:39:51 10° SW 12:43:50 56° SE 12:48:06 10° ENE daylight
30 Jan - 14:20:39 10° W 14:24:22 28° NNW 14:28:17 10° NE daylight
30 Jan - 16:03:16 10° NW 16:05:53 15° N 16:08:34 10° NNE daylight
30 Jan - 17:44:14 10° NNW 17:47:37 20° NNE 17:51:06 10° ENE daylight
30 Jan - 19:24:03 10° NW 19:28:43 59° NE 19:33:27 10° ESE visible
30 Jan - 21:04:57 10° WNW 21:08:48 24° SW 21:12:40 10° S visible
31 Jan - 11:04:05 10° SE 11:05:11 11° SE 11:06:19 10° ESE daylight
31 Jan - 12:40:42 10° SW 12:44:47 89° SE 12:49:09 10° NE daylight
31 Jan - 14:22:11 10° WNW 14:25:35 22° NNW 14:29:09 10° NNE daylight
31 Jan - 16:04:42 10° NNW 16:07:14 15° N 16:09:50 10° NE daylight
31 Jan - 17:45:08 10° NNW 17:48:53 23° NNE 17:52:43 10° ENE daylight
31 Jan - 19:25:00 10° NW 19:29:44 85° NE 19:34:33 10° SE visible
31 Jan - 21:06:46 10° W 21:09:36 16° SW 21:12:26 10° SSW visible
01 Feb - 11:03:09 10° S 11:05:56 18° SE 11:08:49 10° E daylight
01 Feb - 12:41:46 10° WSW 12:45:47 60° NW 12:50:06 10° NE daylight
01 Feb - 14:23:47 10° WNW 14:26:50 19° NNW 14:30:01 10° NNE daylight
01 Feb - 16:05:57 10° NNW 16:08:34 15° N 16:11:15 10° NE daylight
01 Feb - 17:46:00 10° NW 17:50:04 29° NNE 17:54:14 10° E daylight
01 Feb - 19:26:00 10° WNW 19:30:41 64° SW 19:35:26 10° SE visible
02 Feb - 11:03:15 10° SSW 11:06:43 29° SE 11:10:22 10° ENE daylight
02 Feb - 12:42:59 10° WSW 12:46:51 40° NNW 12:50:59 10° NE daylight
02 Feb - 14:25:25 10° NW 14:28:08 16° N 14:30:56 10° NNE daylight
02 Feb - 16:07:02 10° NNW 16:09:53 16° N 16:12:47 10° NE daylight
02 Feb - 17:46:51 10° NW 17:51:12 38° NNE 17:55:39 10° E daylight
02 Feb - 19:27:08 10° WNW 19:31:34 42° SW 19:36:05 10° SSE visible
03 Feb - 11:03:45 10° SSW 11:07:34 48° SE 11:11:36 10° ENE daylight
03 Feb - 12:44:21 10° W 12:47:59 29° NNW 12:51:49 10° NE daylight
03 Feb - 14:26:59 10° NW 14:29:26 15° N 14:31:57 10° NNE daylight
03 Feb - 16:07:59 10° NNW 16:11:09 18° NNE 16:14:24 10° ENE daylight
03 Feb - 17:47:43 10° NW 17:52:15 53° NE 17:56:55 10° ESE daylight
03 Feb - 19:28:26 10° WNW 19:32:25 27° SW 19:36:26 10° S visible
04 Feb - 11:04:32 10° SW 11:08:27 79° SE 11:12:39 10° NE daylight
04 Feb - 12:45:50 10° WNW 12:49:09 23° NNW 12:52:38 10° NNE daylight
04 Feb - 14:28:25 10° NNW 14:30:44 14° N 14:33:07 10° NNE daylight
04 Feb - 16:08:52 10° NNW 16:12:22 22° NNE 16:15:59 10° ENE daylight
04 Feb - 17:48:38 10° NW 17:53:15 77° NE 17:58:02 10° SE daylight
04 Feb - 19:30:04 10° W 19:33:11 18° SW 19:36:21 10° S visible
05 Feb - 09:27:21 10° SSE 09:29:39 15° SE 09:32:00 10° E daylight
05 Feb - 11:05:30 10° WSW 11:09:25 66° NW 11:13:35 10° NE daylight
05 Feb - 12:47:24 10° WNW 12:50:21 19° NNW 12:53:26 10° NNE daylight
05 Feb - 14:29:41 10° NNW 14:32:02 14° N 14:34:27 10° NE daylight
05 Feb - 16:09:41 10° NW 16:13:32 27° NNE 16:17:31 10° E daylight
05 Feb - 17:49:35 10° NW 17:54:11 72° SW 17:58:56 10° SE daylight
05 Feb - 19:32:47 10° WSW 19:33:55 11° SW 19:35:03 10° SW visible
06 Feb - 09:27:12 10° S 09:30:23 25° SE 09:33:42 10° ENE daylight
06 Feb - 11:06:38 10° WSW 11:10:25 43° NNW 11:14:27 10° NE daylight
06 Feb - 12:49:00 10° NW 12:51:36 16° NNW 12:54:17 10° NNE daylight
06 Feb - 14:30:45 10° NNW 14:33:19 15° N 14:35:56 10° NE daylight
06 Feb - 16:10:30 10° NW 16:14:38 35° NNE 16:18:56 10° E daylight
06 Feb - 17:50:38 10° WNW 17:55:04 47° SW 17:59:37 10° SSE daylight
07 Feb - 09:27:34 10° SSW 09:31:11 40° SE 09:34:59 10° ENE daylight
07 Feb - 11:07:56 10° W 11:11:30 31° NNW 11:15:15 10° NE daylight
07 Feb - 12:50:34 10° NW 12:52:51 14° N 12:55:12 10° NNE daylight
07 Feb - 14:31:40 10° NNW 14:34:33 17° NNE 14:37:31 10° NE daylight
07 Feb - 16:11:20 10° NW 16:15:41 47° NNE 16:20:13 10° ESE daylight
07 Feb - 17:51:51 10° WNW 17:55:53 30° SW 18:00:02 10° SSE daylight
08 Feb - 09:28:13 10° SW 09:32:01 68° SE 09:36:03 10° NE daylight
08 Feb - 11:09:22 10° WNW 11:12:36 23° NNW 11:16:00 10° NNE daylight
08 Feb - 12:52:03 10° NNW 12:54:07 13° N 12:56:15 10° NNE daylight
08 Feb - 14:32:31 10° NNW 14:35:45 20° NNE 14:39:06 10° ENE daylight
08 Feb - 16:12:11 10° NW 16:16:40 69° NE 16:21:20 10° ESE daylight
08 Feb - 17:53:20 10° W 17:56:39 20° SW 18:00:02 10° S daylight
